Lid_Strength_Index
11 13 15 13 12 12 13 14 14 12 10 11 12 12 11 10 10 10 9 9 7 5 4 6 5 4 3 3 3 4 4 5 5 5 4 3 2 1 1 0 0 0 1 0
12 14 11 10 10 11 12 13 13 12 10 11 12 12 11 10 10 9 9 9 9 8 7 6 4 3 3 3 3 3 4 4 5 5 5 4 2 3 2 2 1 0 0 0
14 11 9 10 11 11 12 13 13 12 10 11 12 13 12 10 9 8 8 9 8 7 7 5 4 4 3 3 3 2 3 4 4 5 5 3 3 3 4 3 3 3 1 0
13 10 11 11 12 11 14 10 11 11 13 16 12 17 14 11 10 9 8 9 9 8 6 5 4 4 4 3 3 2 3 3 3 2 3 5 4 4 3 4 3 2 1 0
13 12 12 13 11 10 13 10 11 12 14 16 15 18 16 12 12 10 9 8 8 8 8 6 4 4 4 5 4 5 4 3 2 2 3 3 3 3 3 3 3 2 1 1
12 10 11 11 10 10 9 12 13 15 16 19 16 17 16 14 12 11 9 8 6 7 8 6 4 4 5 5 4 3 3 3 3 2 3 3 3 3 3 3 3 3 3 2
13 12 10 10 12 11 12 16 20 20 20 18 14 16 15 12 10 9 8 8 7 7 7 7 6 5 4 4 5 4 3 3 3 3 3 3 3 3 3 3 3 3 2 2
16 16 12 10 12 13 14 15 18 21 20 18 14 18 14 9 8 7 7 7 7 7 7 7 6 4 4 4 4 3 3 3 3 3 3 3 3 3 3 3 2 3 2 2
16 15 10 10 10 10 13 16 14 16 16 19 16 14 10 9 8 8 8 8 8 8 7 7 5 5 4 4 4 3 3 4 3 3 3 3 3 3 3 2 3 3 2 1
13 16 11 10 10 10 12 11 16 16 20 21 18 17 16 11 10 8 8 8 8 8 7 7 7 6 6 5 4 3 3 3 3 3 3 3 3 3 2 3 3 3 2 1
12 14 13 12 13 13 13 13 13 13 15 20 21 18 12 12 11 10 8 8 8 8 7 7 6 7 7 7 6 5 4 4 4 4 3 3 3 3 3 3 2 2 2 2
11 13 16 14 11 10 11 12 12 17 18 16 18 18 9 10 10 8 8 7 6 7 7 6 5 5 6 7 7 7 6 6 4 3 3 3 3 3 3 2 2 2 3 3
11 15 17 16 14 12 12 12 12 13 14 17 19 17 8 8 9 8 8 7 6 6 6 6 6 6 5 5 6 6 6 5 4 3 3 3 3 4 3 2 2 3 3 3
9 13 15 18 15 13 14 12 11 13 17 17 17 14 11 9 9 8 8 7 7 7 7 6 6 6 5 5 5 5 5 5 5 4 4 4 4 3 3 3 3 3 4 3
12 15 14 13 12 12 12 13 12 14 14 17 14 13 11 9 10 9 7 7 7 6 6 6 6 5 5 4 4 4 4 4 4 4 5 5 4 4 4 4 4 4 3 2
13 16 14 14 12 12 14 12 12 12 12 13 13 13 10 9 8 8 8 7 7 7 6 6 6 5 5 5 4 3 4 4 4 5 5 4 4 4 4 4 3 3 2 2
15 16 16 17 12 13 16 13 12 12 12 12 15 12 9 9 9 8 8 7 7 6 6 6 6 6 6 6 5 5 4 4 4 5 4 4 4 4 3 3 3 3 4 3
14 14 15 17 15 20 13 10 10 11 11 10 10 10 9 8 7 7 6 8 7 6 6 6 6 7 6 6 6 5 5 5 5 5 4 4 4 3 3 3 3 3 4 4
11 12 15 19 19 15 13 11 12 13 13 9 10 9 8 7 8 8 6 6 7 7 7 7 7 7 7 7 6 6 6 5 5 5 5 4 4 4 4 4 4 5 5 5
9 9 14 17 19 20 13 10 8 9 15 9 8 9 9 9 13 10 8 7 7 7 7 8 8 8 7 7 7 7 7 7 7 6 5 4 4 4 4 4 5 5 5 4
14 14 16 16 17 15 10 9 7 16 15 9 8 9 8 9 9 8 7 7 7 7 7 7 7 7 7 7 8 8 8 8 7 6 5 5 4 4 4 4 5 5 4 4
15 16 18 15 17 19 8 9 13 11 10 9 9 8 8 8 8 7 7 8 7 7 7 6 7 7 7 7 8 9 9 7 7 7 6 6 6 5 4 5 5 4 4 4
15 12 15 13 15 10 10 9 9 9 9 9 9 8 8 8 9 9 8 8 7 7 8 7 8 9 8 7 7 9 8 7 7 7 7 6 6 5 5 5 5 5 5 5
11 9 11 12 11 11 9 9 9 9 8 7 7 7 8 10 10 9 9 10 10 9 9 9 10 10 9 9 9 9 8 8 8 8 8 8 7 7 6 6 5 5 5 6
11 11 13 13 12 10 10 9 7 7 7 7 7 8 9 9 9 9 10 9 9 10 10 9 10 10 10 9 9 8 8 8 8 8 8 8 8 8 8 7 7 7 6 6
10 12 15 15 10 9 10 8 7 8 8 8 9 9 8 8 9 9 10 9 10 11 11 11 10 10 10 10 9 8 8 8 9 10 10 9 9 8 8 7 6 6 7 8